Dewpoint
45 46 48 48 48 47 46 47 47 48 49 49 50 52 52 53 55 59 61 61 61 61 63 61 62 61 60 59 59 63 63 62 59 50 50 52 50 49 49 49 49 50 51
45 45 46 48 47 46 46 46 47 47 48 49 51 51 52 53 57 60 60 60 58 58 58 58 57 56 55 55 54 53 53 53 54 48 47 46 45 46 48 48 49 49 49
45 44 46 46 46 46 46 46 47 47 48 50 51 51 53 55 58 60 59 55 54 54 54 54 53 54 55 54 53 51 50 49 49 46 43 44 44 45 44 45 45 46 48
44 44 45 45 46 44 45 46 46 47 48 50 50 51 53 54 57 57 55 52 51 51 52 53 53 52 51 51 49 49 48 46 45 43 42 41 42 44 44 42 41 43 43
43 44 45 46 46 43 43 44 45 47 48 49 49 52 55 57 55 55 52 51 51 51 52 51 50 50 49 48 47 46 45 44 43 41 40 41 41 41 41 42 41 41 42
42 43 44 45 43 42 42 43 44 45 48 47 51 55 54 53 49 50 51 50 50 50 49 49 48 47 46 45 45 44 44 43 42 41 40 40 40 41 41 41 41 42 37
43 44 43 43 42 42 41 42 44 46 46 50 53 52 51 51 46 47 48 50 50 49 50 48 45 43 43 42 42 43 43 42 42 41 40 40 40 41 42 42 42 41 40
41 40 41 40 40 42 40 43 45 45 48 51 51 50 48 48 46 46 47 49 49 48 47 46 44 41 41 40 40 40 41 41 43 43 43 43 43 43 44 43 41 41 40
37 38 39 42 42 42 42 43 44 47 49 49 48 47 46 46 45 45 46 47 46 45 42 41 40 39 39 40 40 40 40 40 42 43 43 42 41 41 41 41 37 36 36
37 37 38 39 40 40 43 46 47 48 47 47 46 46 46 45 44 44 45 44 40 37 37 38 40 38 39 39 40 39 39 40 41 41 41 41 43 43 43 42 38 36 36
38 38 39 41 40 43 43 46 47 46 45 44 43 44 44 43 42 41 40 39 39 35 34 35 38 38 37 38 39 39 39 41 41 39 39 39 39 41 40 42 42 39 36
39 39 39 40 41 41 44 46 45 43 42 42 41 41 42 42 42 41 40 40 40 37 36 38 37 37 36 36 35 37 39 39 38 37 38 38 37 38 40 42 43 43 42
39 39 40 40 41 44 44 43 42 43 42 41 40 40 41 42 41 39 38 38 38 36 36 37 37 36 36 36 37 38 38 35 35 34 34 35 36 39 41 42 43 43 44
39 40 41 42 43 44 44 43 42 41 41 40 40 39 40 39 37 38 39 38 39 39 37 35 36 36 37 38 38 38 36 35 34 34 34 35 36 36 38 39 39 42 40
41 41 41 40 39 39 39 41 41 41 41 40 39 39 37 36 37 37 37 36 38 37 36 34 33 32 33 35 35 35 34 33 31 32 32 33 33 34 36 39 39 40 39
39 39 40 39 39 39 38 38 38 38 37 37 37 37 36 35 35 35 35 35 35 35 34 32 31 31 30 29 29 30 32 35 33 29 30 31 32 34 34 37 38 37 38
39 39 39 38 38 38 38 37 36 37 36 35 35 35 34 34 34 34 34 34 34 34 31 29 29 28 28 28 28 28 29 32 32 29 28 30 32 33 34 36 36 36 38
39 39 39 39 39 39 38 37 36 37 37 36 35 34 34 34 34 33 34 33 30 30 28 28 28 28 28 27 27 27 28 28 28 28 29 31 33 32 33 35 37 37 38
39 39 39 39 39 39 36 35 33 34 35 36 35 34 32 33 33 33 32 29 28 27 26 26 27 27 26 26 26 26 28 28 28 27 28 32 34 31 31 33 36 36 37
38 37 36 37 36 35 35 33 33 33 32 33 34 30 29 28 28 28 28 27 26 26 25 25 25 25 24 24 24 23 24 26 27 27 29 33 33 30 30 34 36 37 38
40 40 37 38 37 36 34 32 32 33 32 29 28 28 30 27 27 27 27 26 25 25 24 23 20 21 20 21 21 22 23 25 26 27 28 32 32 30 30 35 36 37 37
39 38 37 35 34 32 31 32 32 29 26 25 26 26 29 26 26 26 25 25 25 24 22 20 19 21 21 21 22 23 24 24 25 25 25 29 30 28 31 34 35 36 36
35 35 33 31 30 31 30 28 27 26 25 25 24 24 24 25 25 25 25 25 24 23 22 20 19 20 23 24 24 23 23 25 25 25 25 27 29 29 34 34 35 36 36
32 33 31 30 29 29 28 27 26 26 24 23 24 23 24 24 24 25 24 25 24 24 23 23 23 22 24 24 24 23 25 26 25 27 28 30 33 33 33 34 34 36 36
33 34 30 29 28 27 26 25 24 24 22 21 20 20 21 22 22 23 24 24 24 23 23 23 22 24 25 25 25 26 29 30 29 29 28 30 33 34 33 33 34 35 35
33 32 30 28 28 26 25 25 24 22 19 18 20 21 21 21 22 22 22 22 20 21 22 21 22 23 23 24 27 28 29 30 28 30 26 27 28 30 32 33 33 33 34
Lifted_Index
5 6 6 7 7 7 7 7 8 8 8 8 7 7 6 5 3 0 -1 -1 -1 -1 -1 -2 -2 -2 -2 -2 -2 -3 -3 -2 -2 -2 -1 -1 0 3 5 7 9 12 13
6 6 7 7 7 7 7 7 8 8 8 8 7 6 5 4 2 -0 -1 -0 -0 -1 -1 -1 -1 -1 -1 -1 -2 -2 -2 -2 -2 -1 -1 -0 2 5 8 9 11 13 14
6 7 7 7 7 7 7 8 8 8 8 7 7 6 5 3 1 -1 -0 0 0 -1 -1 -1 -1 -1 -0 -0 -0 -0 -0 -0 -0 -0 0 1 4 8 11 11 12 14 15
7 7 7 7 8 8 8 8 8 8 8 7 6 6 4 2 1 0 1 1 -0 -1 -1 -1 -0 -0 0 1 1 1 2 1 1 1 1 3 6 10 11 11 12 14 15
7 7 7 8 8 8 8 9 9 8 8 7 6 5 3 2 1 1 1 0 -1 -1 -1 -0 0 1 1 2 2 3 3 3 3 3 3 5 7 10 10 11 13 15 16
8 8 8 8 9 9 9 9 9 8 8 7 5 4 2 2 1 1 1 -0 -1 -1 -0 0 1 1 2 3 4 5 6 6 6 7 7 8 9 10 11 12 14 16 17
9 9 9 9 10 10 10 10 9 8 7 6 5 3 2 2 2 1 1 0 0 0 0 1 2 3 4 5 7 8 10 11 11 11 11 11 12 12 13 14 16 16 16
10 10 10 10 10 10 10 10 9 8 7 5 4 3 3 2 2 1 1 1 1 1 2 3 4 6 7 8 9 11 13 14 15 15 14 14 14 14 15 15 15 14 14
10 11 11 11 11 11 11 10 9 8 6 5 4 3 3 3 2 2 2 1 1 2 4 7 8 10 11 11 12 13 14 15 15 15 15 15 15 15 14 14 14 14 14
12 12 12 12 12 12 11 10 8 7 5 4 4 4 4 3 3 3 3 2 2 3 7 10 12 13 13 14 14 14 14 14 14 14 14 14 14 14 14 14 14 14 14
14 14 13 13 13 12 11 9 7 5 4 4 4 4 4 5 5 5 5 4 4 5 9 12 13 14 14 15 15 14 13 13 13 13 13 13 14 14 15 15 15 15 15
14 14 14 13 13 12 10 8 6 5 4 4 4 4 5 6 7 7 8 8 8 9 10 13 14 15 15 15 14 13 13 13 13 13 14 14 15 15 15 15 15 15 15
14 14 13 12 12 10 9 7 5 4 4 3 3 4 5 7 9 10 11 11 11 11 12 14 14 15 15 14 13 13 13 13 14 14 15 15 15 15 15 15 15 15 15
13 12 11 10 9 8 7 6 5 4 4 3 4 4 5 7 10 11 11 11 11 12 13 14 15 15 15 14 13 13 13 14 15 15 15 15 15 15 15 14 14 14 15
10 10 9 8 7 7 6 6 6 6 5 5 6 6 7 9 10 11 11 11 12 13 14 15 15 15 15 14 14 14 14 15 16 16 16 15 15 15 15 14 14 14 14
8 7 7 7 6 6 6 6 7 7 8 9 9 9 10 10 11 11 12 13 13 14 15 15 15 15 15 15 15 15 16 16 16 16 16 15 15 14 14 14 13 13 12
6 6 6 6 6 5 5 6 7 8 9 10 11 11 12 12 13 13 14 14 15 15 15 15 15 16 16 16 16 16 17 16 16 16 16 16 15 14 14 13 12 12 11
6 6 6 6 6 6 6 6 7 8 8 9 11 13 14 14 15 15 15 16 16 16 16 16 16 16 17 17 17 17 17 17 17 17 16 15 15 14 13 12 11 11 10
7 6 6 6 6 7 7 8 8 8 8 9 12 14 15 16 16 16 16 16 16 16 17 17 17 17 18 18 18 18 18 17 17 17 16 15 14 13 12 11 11 10 10
7 7 7 7 7 8 9 9 9 9 10 11 14 15 16 17 17 17 17 17 17 17 17 18 18 18 18 18 18 18 18 17 17 16 15 14 14 13 12 11 10 10 10
7 7 7 8 9 10 10 10 11 12 13 14 15 16 17 17 17 17 17 17 17 18 18 19 19 19 18 18 18 17 17 16 16 15 15 14 13 13 12 11 10 10 9
8 8 8 9 10 11 11 12 14 15 15 16 16 17 17 17 17 17 17 17 18 18 19 19 19 19 18 18 17 17 16 16 15 15 14 13 13 12 11 10 10 10 9
9 9 10 11 12 13 13 15 15 16 16 16 17 17 17 17 17 17 17 18 18 19 19 19 18 18 18 17 17 16 16 16 15 14 14 13 12 11 11 10 10 9 9
11 11 11 12 14 15 15 16 16 16 16 17 17 17 17 17 17 17 17 18 18 18 18 18 18 18 17 17 17 16 16 15 15 14 13 12 11 10 10 10 10 9 9
12 12 13 14 15 15 16 16 16 16 17 17 17 17 17 17 17 17 17 18 18 18 18 18 18 17 17 17 16 16 16 15 15 14 13 12 11 10 10 10 10 9 9
13 13 15 15 16 16 16 16 16 17 17 17 17 17 16 16 16 17 17 17 18 18 18 17 17 17 17 16 16 16 16 15 15 14 13 12 11 10 10 10 10 9 9